Change the Weather History Date:

Friday, February 28, 2014

  Actual Average (KGEZ) Record (KGEZ)
Temperature  
Mean Temperature 24 °F 35 °F  
Max Temperature 37 °F 44 °F 70 °F (2011)
Min Temperature 10 °F 27 °F 10 °F (2002)
Degree Days  
Heating Degree Days 42 30  
Month to date heating degree days 934  
Since 1 July heating degree days 4163  
Cooling Degree Days 0 0  
Month to date cooling degree days 0  
Year to date cooling degree days 0  
Moisture  
Dew Point 6 °F    
Average Humidity 52    
Maximum Humidity 79    
Minimum Humidity 26    
Precipitation  
Precipitation 0.00 in 0.08 in 0.44 in (2011)
Month to date precipitation 2.36  
Year to date precipitation 4.75  
Sea Level Pressure  
Sea Level Pressure 30.15 in    
Wind  
Wind Speed 5 mph (ESE)    
Max Wind Speed 14 mph    
Max Gust Speed 21 mph    
Visibility 10 miles    
Events      
T = Trace of Precipitation, MM = Missing Value Source: NWS Daily Summary

Daily Weather History Graph

Daily Weather History Graph

Search for Another Location

Airport or City:

Trip Planner

Search our weather history database for the weather conditions in past years. The results will help you decide how hot, cold, wet, or windy it might be!

Date:

Astronomy

Feb. 28, 2014 Rise Set
Actual Time 7:18 AM EST 6:35 PM EST
Civil Twilight 6:51 AM EST 7:02 PM EST
Nautical Twilight 6:20 AM EST 7:33 PM EST
Astronomical Twilight 5:49 AM EST 8:04 PM EST
Moon 6:32 AM EST (2/28) 6:11 PM EST (2/28)
Length of Visible Light 12h 11m
Length of Day
11h 17m
Waning Crescent, 1% of the Moon is Illuminated
Feb 28
Waning Crescent
Mar 1
New
Mar 8
First Quarter
Mar 16
Full
Mar 23
Last Quarter

Hourly Weather History & Observations

Time (EST) Temp. Windchill Dew Point Humidity Pressure Visibility Wind Dir Wind Speed Gust Speed Precip Events Conditions
12:15 AM 12.2 °F 2.9 °F 3.2 °F 67% 30.17 in 10.0 mi NE 5.8 mph - N/A   Unknown
12:35 AM 12.2 °F 2.9 °F 1.4 °F 62% 30.17 in 10.0 mi NE 5.8 mph - N/A   Unknown
12:55 AM 12.2 °F 6.1 °F 1.4 °F 62% 30.18 in 10.0 mi NE 3.5 mph - N/A   Unknown
1:15 AM 12.2 °F 6.1 °F 1.4 °F 62% 30.18 in 10.0 mi NE 3.5 mph - N/A   Unknown
1:35 AM 10.4 °F 2.2 °F 3.2 °F 73% 30.18 in 10.0 mi ENE 4.6 mph - N/A   Unknown
1:55 AM 10.4 °F 0.8 °F 3.2 °F 73% 30.19 in 10.0 mi ENE 5.8 mph - N/A   Unknown
2:15 AM 10.4 °F - 3.2 °F 73% 30.20 in 10.0 mi Calm Calm - N/A   Unknown
2:35 AM 10.4 °F 4.0 °F 3.2 °F 73% 30.20 in 10.0 mi ENE 3.5 mph - N/A   Unknown
2:55 AM 10.4 °F - 3.2 °F 73% 30.20 in 10.0 mi Calm Calm - N/A   Unknown
3:15 AM 10.4 °F 4.0 °F 3.2 °F 73% 30.19 in 10.0 mi ENE 3.5 mph - N/A   Unknown
3:40 AM 10.4 °F 2.2 °F 3.2 °F 73% 30.19 in 10.0 mi East 4.6 mph - N/A   Unknown
3:55 AM 10.4 °F 4.0 °F 3.2 °F 73% 30.19 in 10.0 mi ENE 3.5 mph - N/A   Unknown
4:15 AM 10.4 °F 2.2 °F 3.2 °F 73% 30.19 in 10.0 mi East 4.6 mph - N/A   Unknown
4:35 AM 10.4 °F 2.2 °F 3.2 °F 73% 30.19 in 10.0 mi East 4.6 mph - N/A   Unknown
4:55 AM 10.4 °F 0.8 °F 3.2 °F 73% 30.19 in 10.0 mi East 5.8 mph - N/A   Unknown
5:15 AM 10.4 °F 0.8 °F 5.0 °F 79% 30.19 in 10.0 mi East 5.8 mph - N/A   Unknown
5:35 AM 10.4 °F 0.8 °F 5.0 °F 79% 30.19 in 10.0 mi East 5.8 mph - N/A   Unknown
5:55 AM 10.4 °F 2.2 °F 5.0 °F 79% 30.19 in 10.0 mi East 4.6 mph - N/A   Unknown
6:15 AM 10.4 °F 0.8 °F 5.0 °F 79% 30.20 in 10.0 mi ESE 5.8 mph - N/A   Unknown
6:35 AM 10.4 °F 0.8 °F 5.0 °F 79% 30.20 in 10.0 mi ESE 5.8 mph - N/A   Unknown
6:55 AM 12.2 °F 4.3 °F 5.0 °F 73% 30.21 in 10.0 mi ESE 4.6 mph - N/A   Unknown
7:15 AM 12.2 °F 6.1 °F 5.0 °F 73% 30.21 in 10.0 mi ESE 3.5 mph - N/A   Unknown
7:35 AM 12.2 °F 6.1 °F 5.0 °F 73% 30.22 in 10.0 mi ESE 3.5 mph - N/A   Unknown
7:55 AM 12.2 °F 2.9 °F 6.8 °F 79% 30.22 in 10.0 mi ESE 5.8 mph - N/A   Unknown
8:15 AM 14.0 °F 5.1 °F 6.8 °F 73% 30.22 in 10.0 mi ESE 5.8 mph - N/A   Unknown
8:35 AM 15.8 °F 6.1 °F 8.6 °F 73% 30.23 in 10.0 mi ESE 6.9 mph - N/A   Unknown
8:55 AM 17.6 °F 6.4 °F 6.8 °F 63% 30.24 in 10.0 mi SE 9.2 mph - N/A   Unknown
9:20 AM 19.4 °F 9.5 °F 8.6 °F 63% 30.24 in 10.0 mi SE 8.1 mph - N/A   Unknown
9:35 AM 19.4 °F 9.5 °F 6.8 °F 58% 30.23 in 10.0 mi SE 8.1 mph - N/A   Unknown
9:55 AM 21.2 °F 11.7 °F 8.6 °F 58% 30.23 in 10.0 mi SE 8.1 mph - N/A   Unknown
10:15 AM 21.2 °F 11.7 °F 8.6 °F 58% 30.23 in 10.0 mi SE 8.1 mph - N/A   Unknown
10:35 AM 23.0 °F 14.7 °F 8.6 °F 54% 30.22 in 10.0 mi SE 6.9 mph - N/A   Unknown
10:55 AM 26.6 °F 16.8 °F 8.6 °F 47% 30.22 in 10.0 mi SSE 10.4 mph - N/A   Unknown
11:15 AM 26.6 °F 16.8 °F 6.8 °F 43% 30.21 in 10.0 mi SSE 10.4 mph 16.1 mph N/A   Unknown
11:35 AM 28.4 °F 18.5 °F 6.8 °F 40% 30.21 in 10.0 mi SSE 11.5 mph 20.7 mph N/A   Unknown
11:55 AM 28.4 °F 18.5 °F 5.0 °F 37% 30.20 in 10.0 mi SE 11.5 mph 18.4 mph N/A   Unknown
12:15 PM 30.2 °F 20.8 °F 5.0 °F 34% 30.20 in 10.0 mi SE 11.5 mph 17.3 mph N/A   Unknown
12:35 PM 30.2 °F 20.2 °F 5.0 °F 34% 30.19 in 10.0 mi South 12.7 mph - N/A   Unknown
12:55 PM 32.0 °F 24.2 °F 3.2 °F 30% 30.18 in 10.0 mi South 9.2 mph 16.1 mph N/A   Unknown
1:15 PM 32.0 °F 23.0 °F 3.2 °F 30% 30.16 in 10.0 mi SSE 11.5 mph 16.1 mph N/A   Unknown
1:35 PM 32.0 °F 25.6 °F 5.0 °F 32% 30.15 in 10.0 mi SSE 6.9 mph - N/A   Unknown
1:55 PM 33.8 °F 27.0 °F 5.0 °F 30% 30.14 in 10.0 mi South 8.1 mph 16.1 mph N/A   Unknown
2:15 PM 33.8 °F 27.0 °F 5.0 °F 30% 30.14 in 10.0 mi ESE 8.1 mph 16.1 mph N/A   Unknown
2:35 PM 33.8 °F 28.6 °F 5.0 °F 30% 30.13 in 10.0 mi SE 5.8 mph - N/A   Unknown
2:55 PM 33.8 °F 25.3 °F 5.0 °F 30% 30.12 in 10.0 mi SE 11.5 mph 17.3 mph N/A   Unknown
3:15 PM 35.6 °F 28.6 °F 5.0 °F 28% 30.11 in 10.0 mi SE 9.2 mph - N/A   Unknown
3:35 PM 35.6 °F 26.6 °F 5.0 °F 28% 30.10 in 10.0 mi South 13.8 mph - N/A   Unknown
3:55 PM 35.6 °F 27.5 °F 5.0 °F 28% 30.09 in 10.0 mi SE 11.5 mph 16.1 mph N/A   Unknown
4:15 PM 35.6 °F 28.0 °F 5.0 °F 28% 30.08 in 10.0 mi SE 10.4 mph 16.1 mph N/A   Unknown
4:35 PM 37.4 °F 30.3 °F 5.0 °F 26% 30.07 in 10.0 mi SE 10.4 mph - N/A   Unknown
4:55 PM 37.4 °F 30.3 °F 6.8 °F 28% 30.08 in 10.0 mi South 10.4 mph - N/A   Unknown
5:15 PM 37.4 °F 32.1 °F 6.8 °F 28% 30.07 in 10.0 mi SSE 6.9 mph - N/A   Unknown
5:35 PM 35.6 °F 28.6 °F 8.6 °F 33% 30.06 in 10.0 mi South 9.2 mph - N/A   Unknown
5:55 PM 35.6 °F 29.9 °F 8.6 °F 33% 30.05 in 10.0 mi SSE 6.9 mph - N/A   Unknown
6:15 PM 35.6 °F 30.7 °F 6.8 °F 30% 30.06 in 10.0 mi SSE 5.8 mph - N/A   Unknown
6:35 PM 33.8 °F 30.8 °F 6.8 °F 32% 30.05 in 10.0 mi SE 3.5 mph - N/A   Unknown
6:55 PM 33.8 °F 30.8 °F 6.8 °F 32% 30.06 in 10.0 mi SSE 3.5 mph - N/A   Unknown
7:15 PM 33.8 °F - 6.8 °F 32% 30.06 in 10.0 mi Calm Calm - N/A   Unknown
7:35 PM 32.0 °F - 6.8 °F 35% 30.06 in 10.0 mi Calm Calm - N/A   Unknown
7:55 PM 32.0 °F - 6.8 °F 35% 30.06 in 10.0 mi Calm Calm - N/A   Unknown
8:15 PM 30.2 °F - 8.6 °F 40% 30.06 in 10.0 mi Calm Calm - N/A   Unknown
8:40 PM 30.2 °F - 10.4 °F 44% 30.07 in 10.0 mi Calm Calm - N/A   Unknown
8:55 PM 30.2 °F - 10.4 °F 44% 30.07 in 10.0 mi Calm Calm - N/A   Unknown
9:15 PM 28.4 °F - 12.2 °F 51% 30.08 in 10.0 mi Calm Calm - N/A   Unknown
9:35 PM 28.4 °F - 12.2 °F 51% 30.08 in 10.0 mi Calm Calm - N/A   Unknown
9:55 PM 26.6 °F - 14.0 °F 59% 30.08 in 10.0 mi Calm Calm - N/A   Unknown
10:15 PM 26.6 °F - 14.0 °F 59% 30.08 in 10.0 mi Calm Calm - N/A   Unknown
10:35 PM 26.6 °F - 14.0 °F 59% 30.08 in 10.0 mi Calm Calm - N/A   Unknown
10:55 PM 26.6 °F - 14.0 °F 59% 30.08 in 10.0 mi Calm Calm - N/A   Unknown
11:15 PM 26.6 °F - 14.0 °F 59% 30.08 in 10.0 mi Calm Calm - N/A   Unknown
11:35 PM 26.6 °F - 12.2 °F 55% 30.07 in 10.0 mi Calm Calm - N/A   Unknown
11:55 PM 30.2 °F - 10.4 °F 44% 30.07 in 10.0 mi Calm Calm - N/A   Unknown